Time,TemperatureF,DewpointF,PressureIn,WindDirection,WindDirectionDegrees,WindSpeedMPH,WindSpeedGustMPH,Humidity,HourlyPrecipIn,Conditions,Clouds,dailyrainin,SoftwareType,DateUTC
2013-06-22 00:04:00,69.8,67.4,29.99,SE,142,1.0,3.0,92,0.00,,,0.00,Wunderground v.1.15,2013-06-22 05:04:00,
2013-06-22 00:10:00,70.0,67.6,29.98,South,173,1.0,3.0,92,0.00,,,0.00,Wunderground v.1.15,2013-06-22 05:10:00,
2013-06-22 00:16:00,70.1,67.3,29.98,South,178,1.0,2.0,91,0.00,,,0.00,Wunderground v.1.15,2013-06-22 05:16:00,
2013-06-22 00:22:00,70.3,67.5,29.97,SSE,165,1.0,2.0,91,0.00,,,0.00,Wunderground v.1.15,2013-06-22 05:22:00,
2013-06-22 00:28:00,70.5,67.7,29.97,SW,220,1.0,2.0,91,0.00,,,0.00,Wunderground v.1.15,2013-06-22 05:28:00,
2013-06-22 00:34:00,70.7,67.9,29.96,SSE,162,2.0,4.0,91,0.00,,,0.00,Wunderground v.1.15,2013-06-22 05:34:00,
2013-06-22 00:40:00,70.8,67.7,29.96,SSE,157,2.0,4.0,90,0.00,,,0.00,Wunderground v.1.15,2013-06-22 05:40:00,
2013-06-22 00:46:00,70.8,67.7,29.95,SSE,157,1.0,2.0,90,0.00,,,0.00,Wunderground v.1.15,2013-06-22 05:46:00,
2013-06-22 00:52:00,70.8,67.7,29.95,SSW,198,2.0,2.0,90,0.00,,,0.00,Wunderground v.1.15,2013-06-22 05:52:00,
2013-06-22 00:58:00,70.8,67.7,29.95,SSW,198,2.0,2.0,90,0.00,,,0.00,Wunderground v.1.15,2013-06-22 05:58:00,
2013-06-22 01:04:00,70.8,67.7,29.94,SSW,201,2.0,5.0,90,0.00,,,0.00,Wunderground v.1.15,2013-06-22 06:04:00,
2013-06-22 01:10:00,70.8,67.7,29.94,West,281,2.0,5.0,90,0.00,,,0.00,Wunderground v.1.15,2013-06-22 06:10:00,
2013-06-22 01:16:00,70.9,67.8,29.94,South,178,3.0,3.0,90,0.00,,,0.00,Wunderground v.1.15,2013-06-22 06:16:00,
2013-06-22 01:22:00,71.0,67.9,29.93,SSE,148,3.0,3.0,90,0.00,,,0.00,Wunderground v.1.15,2013-06-22 06:22:00,
2013-06-22 01:28:00,71.0,67.9,29.93,ESE,111,2.0,4.0,90,0.00,,,0.00,Wunderground v.1.15,2013-06-22 06:28:00,
2013-06-22 01:34:00,71.0,67.9,29.93,SW,216,2.0,3.0,90,0.00,,,0.00,Wunderground v.1.15,2013-06-22 06:34:00,
2013-06-22 01:40:00,71.0,67.9,29.93,WSW,240,3.0,3.0,90,0.00,,,0.00,Wunderground v.1.15,2013-06-22 06:40:00,
2013-06-22 01:46:00,71.2,68.1,29.93,WSW,247,3.0,3.0,90,0.00,,,0.00,Wunderground v.1.15,2013-06-22 06:46:00,
2013-06-22 01:52:00,71.4,68.0,29.93,SW,219,2.0,3.0,89,0.00,,,0.00,Wunderground v.1.15,2013-06-22 06:52:00,
2013-06-22 01:58:00,71.5,68.1,29.93,SSW,200,3.0,4.0,89,0.00,,,0.00,Wunderground v.1.15,2013-06-22 06:58:00,
2013-06-22 02:04:00,71.7,68.3,29.93,South,189,3.0,5.0,89,0.00,,,0.00,Wunderground v.1.15,2013-06-22 07:04:00,
2013-06-22 02:10:00,72.0,68.6,29.93,SW,231,3.0,3.0,89,0.00,,,0.00,Wunderground v.1.15,2013-06-22 07:10:00,
2013-06-22 02:16:00,72.1,68.3,29.93,SSW,209,3.0,5.0,88,0.00,,,0.00,Wunderground v.1.15,2013-06-22 07:16:00,
2013-06-22 02:22:00,72.2,68.4,29.93,SSW,211,2.0,2.0,88,0.00,,,0.00,Wunderground v.1.15,2013-06-22 07:22:00,
2013-06-22 02:28:00,72.3,68.5,29.94,SSW,207,2.0,6.0,88,0.00,,,0.00,Wunderground v.1.15,2013-06-22 07:28:00,
2013-06-22 02:34:00,72.6,68.8,29.94,SW,217,3.0,4.0,88,0.00,,,0.00,Wunderground v.1.15,2013-06-22 07:34:00,
2013-06-22 02:40:00,72.7,68.6,29.94,SW,227,3.0,3.0,87,0.00,,,0.00,Wunderground v.1.15,2013-06-22 07:40:00,
2013-06-22 02:46:00,72.8,68.7,29.94,SW,215,3.0,3.0,87,0.00,,,0.00,Wunderground v.1.15,2013-06-22 07:46:00,
2013-06-22 02:52:00,72.8,68.7,29.94,SW,217,3.0,4.0,87,0.00,,,0.00,Wunderground v.1.15,2013-06-22 07:52:00,
2013-06-22 02:58:00,72.9,68.8,29.94,SW,224,3.0,4.0,87,0.00,,,0.00,Wunderground v.1.15,2013-06-22 07:58:00,
2013-06-22 03:04:00,73.0,68.9,29.95,SW,225,3.0,4.0,87,0.00,,,0.00,Wunderground v.1.15,2013-06-22 08:04:00,
2013-06-22 03:09:00,72.9,68.8,29.95,SW,219,3.0,4.0,87,0.00,,,0.00,Wunderground v.1.15,2013-06-22 08:09:00,
2013-06-22 03:16:00,73.0,68.9,29.94,SSW,213,3.0,4.0,87,0.00,,,0.00,Wunderground v.1.15,2013-06-22 08:16:00,
2013-06-22 03:22:00,73.2,69.1,29.95,SW,221,3.0,3.0,87,0.00,,,0.00,Wunderground v.1.15,2013-06-22 08:22:00,
2013-06-22 03:28:00,73.1,69.0,29.96,SW,224,2.0,3.0,87,0.00,,,0.00,Wunderground v.1.15,2013-06-22 08:28:00,
2013-06-22 03:34:00,73.0,68.9,29.97,NE,42,2.0,8.0,87,0.00,,,0.00,Wunderground v.1.15,2013-06-22 08:34:00,
2013-06-22 03:40:00,72.4,68.3,29.98,NNE,31,4.0,4.0,87,0.00,,,0.00,Wunderground v.1.15,2013-06-22 08:40:00,
2013-06-22 03:46:00,73.0,69.2,29.97,SSW,210,4.0,4.0,88,0.00,,,0.00,Wunderground v.1.15,2013-06-22 08:46:00,
2013-06-22 03:52:00,74.1,69.3,29.98,NW,306,2.0,3.0,85,0.00,,,0.00,Wunderground v.1.15,2013-06-22 08:52:00,
2013-06-22 03:58:00,73.7,66.4,29.99,NE,42,4.0,9.0,78,0.00,,,0.00,Wunderground v.1.15,2013-06-22 08:58:00,
2013-06-22 04:04:00,72.2,65.7,29.99,NE,53,8.0,11.0,80,0.00,,,0.00,Wunderground v.1.15,2013-06-22 09:04:00,
2013-06-22 04:10:00,71.3,65.2,29.98,NE,44,8.0,11.0,81,0.00,,,0.00,Wunderground v.1.15,2013-06-22 09:10:00,
2013-06-22 04:16:00,70.8,65.0,29.98,NE,55,7.0,9.0,82,0.00,,,0.00,Wunderground v.1.15,2013-06-22 09:16:00,
2013-06-22 04:22:00,70.5,64.7,29.98,NE,53,8.0,8.0,82,0.00,,,0.00,Wunderground v.1.15,2013-06-22 09:22:00,
2013-06-22 04:28:00,70.4,65.0,29.98,NE,46,5.0,8.0,83,0.00,,,0.00,Wunderground v.1.15,2013-06-22 09:28:00,
2013-06-22 04:34:00,70.3,64.9,29.98,East,97,3.0,4.0,83,0.00,,,0.00,Wunderground v.1.15,2013-06-22 09:34:00,
2013-06-22 04:40:00,70.2,64.8,29.98,East,96,3.0,4.0,83,0.00,,,0.00,Wunderground v.1.15,2013-06-22 09:40:00,
2013-06-22 04:46:00,70.3,64.9,29.97,East,85,4.0,8.0,83,0.00,,,0.00,Wunderground v.1.15,2013-06-22 09:46:00,
2013-06-22 04:52:00,70.4,65.0,29.98,East,83,5.0,6.0,83,0.00,,,0.00,Wunderground v.1.15,2013-06-22 09:52:00,
2013-06-22 04:58:00,70.3,65.2,29.98,East,82,3.0,6.0,84,0.00,,,0.00,Wunderground v.1.15,2013-06-22 09:58:00,
2013-06-22 05:04:00,70.2,65.1,29.97,East,82,1.0,2.0,84,0.00,,,0.00,Wunderground v.1.15,2013-06-22 10:04:00,
2013-06-22 05:10:00,70.1,65.0,29.97,East,82,0.0,0.0,84,0.00,,,0.00,Wunderground v.1.15,2013-06-22 10:10:00,
2013-06-22 05:16:00,70.0,65.3,29.98,East,82,0.0,1.0,85,0.00,,,0.00,Wunderground v.1.15,2013-06-22 10:16:00,
2013-06-22 05:22:00,69.8,65.4,29.98,East,82,2.0,5.0,86,0.00,,,0.00,Wunderground v.1.15,2013-06-22 10:22:00,
2013-06-22 05:28:00,69.5,65.1,29.98,East,82,2.0,5.0,86,0.00,,,0.00,Wunderground v.1.15,2013-06-22 10:28:00,
2013-06-22 05:34:00,69.5,65.5,29.98,East,82,1.0,2.0,87,0.00,,,0.00,Wunderground v.1.15,2013-06-22 10:34:00,
2013-06-22 05:40:00,69.4,65.4,29.99,East,82,0.0,1.0,87,0.00,,,0.00,Wunderground v.1.15,2013-06-22 10:40:00,
2013-06-22 05:46:00,69.4,65.7,29.99,NNW,344,1.0,1.0,88,0.00,,,0.00,Wunderground v.1.15,2013-06-22 10:46:00,
2013-06-22 05:52:00,69.2,65.8,29.99,NNW,344,0.0,1.0,89,0.00,,,0.00,Wunderground v.1.15,2013-06-22 10:52:00,
2013-06-22 05:58:00,69.1,65.7,30.00,NNW,344,0.0,1.0,89,0.00,,,0.00,Wunderground v.1.15,2013-06-22 10:58:00,
2013-06-22 06:04:00,68.9,65.8,29.99,NNW,344,0.0,1.0,90,0.00,,,0.00,Wunderground v.1.15,2013-06-22 11:04:00,
2013-06-22 06:10:00,68.7,65.6,29.99,ENE,58,2.0,2.0,90,0.00,,,0.00,Wunderground v.1.15,2013-06-22 11:10:00,
2013-06-22 06:16:00,68.5,65.8,30.01,NNW,332,2.0,4.0,91,0.00,,,0.00,Wunderground v.1.15,2013-06-22 11:16:00,
2013-06-22 06:22:00,68.1,65.4,30.01,North,351,4.0,12.0,91,1.25,,,0.08,Wunderground v.1.15,2013-06-22 11:22:00,
2013-06-22 06:28:00,67.8,65.4,30.03,NW,319,6.0,12.0,92,0.29,,,0.16,Wunderground v.1.15,2013-06-22 11:28:00,
2013-06-22 06:34:00,67.6,65.2,30.04,NNW,348,4.0,5.0,92,0.14,,,0.17,Wunderground v.1.15,2013-06-22 11:34:00,
2013-06-22 06:40:00,67.6,65.5,30.03,North,355,3.0,5.0,93,0.06,,,0.17,Wunderground v.1.15,2013-06-22 11:40:00,
2013-06-22 06:46:00,67.6,65.5,30.02,NNE,30,2.0,3.0,93,0.05,,,0.18,Wunderground v.1.15,2013-06-22 11:46:00,
2013-06-22 06:52:00,67.6,65.5,30.02,NE,44,2.0,2.0,93,0.05,,,0.18,Wunderground v.1.15,2013-06-22 11:52:00,
2013-06-22 06:58:00,67.6,65.5,30.02,ENE,62,4.0,8.0,93,0.04,,,0.18,Wunderground v.1.15,2013-06-22 11:58:00,
2013-06-22 07:04:00,67.7,65.6,30.03,ENE,66,5.0,9.0,93,0.00,,,0.18,Wunderground v.1.15,2013-06-22 12:04:00,
2013-06-22 07:10:00,67.7,65.6,30.03,ENE,61,5.0,5.0,93,0.00,,,0.18,Wunderground v.1.15,2013-06-22 12:10:00,
2013-06-22 07:16:00,67.8,65.7,30.03,ENE,61,5.0,7.0,93,0.00,,,0.18,Wunderground v.1.15,2013-06-22 12:16:00,
2013-06-22 07:22:00,67.8,65.7,30.03,East,84,6.0,8.0,93,0.00,,,0.18,Wunderground v.1.15,2013-06-22 12:22:00,
2013-06-22 07:28:00,67.7,65.6,30.03,ENE,57,6.0,8.0,93,0.00,,,0.18,Wunderground v.1.15,2013-06-22 12:28:00,
2013-06-22 07:34:00,67.7,65.6,30.03,ENE,59,6.0,9.0,93,0.00,,,0.18,Wunderground v.1.15,2013-06-22 12:34:00,
2013-06-22 07:40:00,67.6,65.5,30.03,ENE,58,7.0,9.0,93,0.00,,,0.18,Wunderground v.1.15,2013-06-22 12:40:00,
2013-06-22 07:46:00,67.6,65.5,30.04,NE,55,7.0,9.0,93,0.00,,,0.18,Wunderground v.1.15,2013-06-22 12:46:00,
2013-06-22 07:52:00,67.7,65.6,30.02,East,96,5.0,7.0,93,0.00,,,0.19,Wunderground v.1.15,2013-06-22 12:52:00,
2013-06-22 07:58:00,67.6,65.5,30.02,ESE,109,4.0,7.0,93,0.00,,,0.19,Wunderground v.1.15,2013-06-22 12:58:00,
2013-06-22 08:04:00,67.5,65.7,30.01,East,101,3.0,5.0,94,0.00,,,0.19,Wunderground v.1.15,2013-06-22 13:04:00,
2013-06-22 08:10:00,67.4,65.6,30.01,East,86,3.0,6.0,94,0.00,,,0.19,Wunderground v.1.15,2013-06-22 13:10:00,
2013-06-22 08:16:00,67.6,65.8,30.01,East,84,4.0,7.0,94,0.00,,,0.19,Wunderground v.1.15,2013-06-22 13:16:00,
2013-06-22 08:22:00,67.7,65.9,30.01,East,86,5.0,6.0,94,0.00,,,0.19,Wunderground v.1.15,2013-06-22 13:22:00,
2013-06-22 08:28:00,68.0,66.2,30.01,ENE,77,5.0,6.0,94,0.00,,,0.20,Wunderground v.1.15,2013-06-22 13:28:00,
2013-06-22 08:34:00,68.3,66.5,30.01,ENE,69,4.0,5.0,94,0.00,,,0.20,Wunderground v.1.15,2013-06-22 13:34:00,
2013-06-22 08:39:00,68.6,66.5,30.01,ENE,69,3.0,5.0,93,0.00,,,0.20,Wunderground v.1.15,2013-06-22 13:39:00,
2013-06-22 08:46:00,68.9,66.8,30.00,East,82,3.0,5.0,93,0.00,,,0.20,Wunderground v.1.15,2013-06-22 13:46:00,
2013-06-22 08:52:00,69.1,67.0,30.01,East,82,2.0,2.0,93,0.00,,,0.20,Wunderground v.1.15,2013-06-22 13:52:00,
2013-06-22 08:58:00,69.6,67.5,30.01,East,82,0.0,2.0,93,0.00,,,0.20,Wunderground v.1.15,2013-06-22 13:58:00,
2013-06-22 09:04:00,69.7,67.3,30.01,East,101,1.0,2.0,92,0.00,,,0.20,Wunderground v.1.15,2013-06-22 14:04:00,
2013-06-22 09:10:00,70.1,67.7,30.01,East,101,2.0,2.0,92,0.00,,,0.20,Wunderground v.1.15,2013-06-22 14:10:00,
2013-06-22 09:16:00,70.8,68.7,30.02,East,101,2.0,2.0,93,0.00,,,0.20,Wunderground v.1.15,2013-06-22 14:16:00,
2013-06-22 09:22:00,71.3,68.9,30.02,East,101,1.0,2.0,92,0.00,,,0.20,Wunderground v.1.15,2013-06-22 14:22:00,
2013-06-22 09:28:00,71.7,68.6,30.03,East,101,1.0,2.0,90,0.00,,,0.20,Wunderground v.1.15,2013-06-22 14:28:00,
2013-06-22 09:34:00,72.2,69.1,30.03,East,101,0.0,2.0,90,0.00,,,0.20,Wunderground v.1.15,2013-06-22 14:34:00,
2013-06-22 09:40:00,72.9,70.1,30.03,East,101,0.0,2.0,91,0.00,,,0.20,Wunderground v.1.15,2013-06-22 14:40:00,
2013-06-22 09:46:00,73.6,70.5,30.03,East,101,0.0,1.0,90,0.00,,,0.20,Wunderground v.1.15,2013-06-22 14:46:00,
2013-06-22 09:52:00,74.2,71.1,30.03,SE,136,0.0,0.0,90,0.00,,,0.20,Wunderground v.1.15,2013-06-22 14:52:00,
2013-06-22 09:58:00,75.0,71.9,30.03,SW,214,1.0,1.0,90,0.00,,,0.20,Wunderground v.1.15,2013-06-22 14:58:00,
2013-06-22 10:03:00,75.3,71.2,30.03,South,178,1.0,1.0,87,0.00,,,0.20,Wunderground v.1.15,2013-06-22 15:03:00,
2013-06-22 10:10:00,75.5,71.0,30.03,South,178,1.0,1.0,86,0.00,,,0.20,Wunderground v.1.15,2013-06-22 15:10:00,
2013-06-22 10:16:00,75.7,70.9,30.03,SE,130,1.0,3.0,85,0.00,,,0.20,Wunderground v.1.15,2013-06-22 15:16:00,
2013-06-22 10:22:00,75.8,71.3,30.03,SE,130,1.0,1.0,86,0.00,,,0.20,Wunderground v.1.15,2013-06-22 15:22:00,
2013-06-22 10:28:00,76.0,70.8,30.03,SE,130,0.0,1.0,84,0.00,,,0.20,Wunderground v.1.15,2013-06-22 15:28:00,
2013-06-22 10:34:00,76.1,71.3,30.03,SE,130,0.0,0.0,85,0.00,,,0.20,Wunderground v.1.15,2013-06-22 15:34:00,
2013-06-22 10:40:00,76.5,71.7,30.03,SE,130,0.0,2.0,85,0.00,,,0.20,Wunderground v.1.15,2013-06-22 15:40:00,
2013-06-22 10:45:00,76.5,71.7,30.03,SE,130,1.0,2.0,85,0.00,,,0.20,Wunderground v.1.15,2013-06-22 15:45:00,
2013-06-22 10:52:00,77.1,72.2,30.03,SE,130,0.0,0.0,85,0.00,,,0.20,Wunderground v.1.15,2013-06-22 15:52:00,
2013-06-22 10:58:00,77.6,72.4,30.03,NNW,331,1.0,4.0,84,0.00,,,0.20,Wunderground v.1.15,2013-06-22 15:58:00,
2013-06-22 11:04:00,77.8,72.6,30.02,East,86,2.0,3.0,84,0.00,,,0.20,Wunderground v.1.15,2013-06-22 16:04:00,
2013-06-22 11:10:00,77.6,72.7,30.01,NE,54,3.0,3.0,85,0.00,,,0.20,Wunderground v.1.15,2013-06-22 16:10:00,
2013-06-22 11:16:00,77.2,72.0,30.02,NE,40,2.0,3.0,84,0.00,,,0.20,Wunderground v.1.15,2013-06-22 16:16:00,
2013-06-22 11:22:00,76.5,71.3,30.02,NE,50,2.0,4.0,84,0.00,,,0.20,Wunderground v.1.15,2013-06-22 16:22:00,
2013-06-22 11:28:00,76.0,71.2,30.03,NNW,346,2.0,4.0,85,0.00,,,0.20,Wunderground v.1.15,2013-06-22 16:28:00,
2013-06-22 11:34:00,75.8,71.3,30.02,ENE,67,2.0,4.0,86,0.00,,,0.20,Wunderground v.1.15,2013-06-22 16:34:00,
2013-06-22 11:39:00,76.1,70.9,30.02,NE,53,3.0,3.0,84,0.00,,,0.20,Wunderground v.1.15,2013-06-22 16:39:00,
2013-06-22 11:46:00,76.6,72.1,30.02,NE,54,4.0,5.0,86,0.00,,,0.20,Wunderground v.1.15,2013-06-22 16:46:00,
2013-06-22 11:52:00,76.8,71.9,30.01,ESE,115,5.0,5.0,85,0.00,,,0.20,Wunderground v.1.15,2013-06-22 16:52:00,
2013-06-22 11:58:00,76.6,71.7,30.01,East,86,4.0,6.0,85,0.00,,,0.20,Wunderground v.1.15,2013-06-22 16:58:00,
2013-06-22 12:04:00,76.4,71.6,30.01,East,86,3.0,3.0,85,0.00,,,0.20,Wunderground v.1.15,2013-06-22 17:04:00,
2013-06-22 12:10:00,76.1,71.6,30.02,East,86,2.0,3.0,86,0.00,,,0.20,Wunderground v.1.15,2013-06-22 17:10:00,
2013-06-22 12:16:00,76.0,72.2,30.02,East,86,3.0,5.0,88,0.00,,,0.20,Wunderground v.1.15,2013-06-22 17:16:00,
2013-06-22 12:22:00,75.7,71.9,30.02,ESE,107,3.0,3.0,88,0.00,,,0.20,Wunderground v.1.15,2013-06-22 17:22:00,
2013-06-22 12:28:00,75.7,71.9,30.02,East,90,2.0,5.0,88,0.00,,,0.20,Wunderground v.1.15,2013-06-22 17:28:00,
2013-06-22 12:34:00,75.6,72.1,30.01,East,90,3.0,3.0,89,0.00,,,0.20,Wunderground v.1.15,2013-06-22 17:34:00,
2013-06-22 12:40:00,75.4,71.9,30.01,East,90,2.0,3.0,89,0.00,,,0.20,Wunderground v.1.15,2013-06-22 17:40:00,
2013-06-22 12:46:00,75.3,71.8,30.00,East,90,2.0,3.0,89,0.00,,,0.20,Wunderground v.1.15,2013-06-22 17:46:00,
2013-06-22 12:52:00,75.3,72.2,30.01,ESE,113,3.0,4.0,90,0.00,,,0.20,Wunderground v.1.15,2013-06-22 17:52:00,
2013-06-22 12:58:00,75.3,72.2,30.00,ESE,117,4.0,6.0,90,0.00,,,0.20,Wunderground v.1.15,2013-06-22 17:58:00,
2013-06-22 13:04:00,75.3,72.2,30.00,ESE,112,4.0,4.0,90,0.00,,,0.20,Wunderground v.1.15,2013-06-22 18:04:00,
2013-06-22 13:10:00,75.5,72.7,30.00,East,94,3.0,5.0,91,0.00,,,0.20,Wunderground v.1.15,2013-06-22 18:10:00,
2013-06-22 13:16:00,75.6,72.8,30.00,ESE,115,3.0,4.0,91,0.00,,,0.20,Wunderground v.1.15,2013-06-22 18:16:00,
2013-06-22 13:22:00,75.7,72.9,30.00,ESE,117,2.0,3.0,91,0.00,,,0.20,Wunderground v.1.15,2013-06-22 18:22:00,
2013-06-22 13:28:00,75.8,73.0,30.00,ESE,111,2.0,4.0,91,0.00,,,0.20,Wunderground v.1.15,2013-06-22 18:28:00,
2013-06-22 13:34:00,75.9,73.1,30.00,ESE,121,3.0,5.0,91,0.00,,,0.20,Wunderground v.1.15,2013-06-22 18:34:00,
2013-06-22 13:40:00,76.0,73.2,29.99,SSE,149,3.0,6.0,91,0.00,,,0.20,Wunderground v.1.15,2013-06-22 18:40:00,
2013-06-22 13:46:00,76.2,73.4,29.99,SSE,148,3.0,3.0,91,0.00,,,0.20,Wunderground v.1.15,2013-06-22 18:46:00,
2013-06-22 13:52:00,76.4,73.6,29.99,South,181,2.0,2.0,91,0.00,,,0.20,Wunderground v.1.15,2013-06-22 18:52:00,
2013-06-22 13:58:00,76.7,73.9,29.99,SE,128,1.0,2.0,91,0.00,,,0.20,Wunderground v.1.15,2013-06-22 18:58:00,
2013-06-22 14:04:00,76.9,73.4,29.99,SE,139,1.0,1.0,89,0.00,,,0.20,Wunderground v.1.15,2013-06-22 19:04:00,
2013-06-22 14:10:00,77.2,73.7,29.99,South,180,1.0,2.0,89,0.00,,,0.20,Wunderground v.1.15,2013-06-22 19:10:00,
2013-06-22 14:16:00,77.4,73.6,29.98,SSW,209,1.0,3.0,88,0.00,,,0.20,Wunderground v.1.15,2013-06-22 19:16:00,
2013-06-22 14:22:00,77.5,73.3,29.98,South,172,2.0,2.0,87,0.00,,,0.20,Wunderground v.1.15,2013-06-22 19:22:00,
2013-06-22 14:28:00,77.5,73.7,29.98,SSE,159,2.0,4.0,88,0.00,,,0.20,Wunderground v.1.15,2013-06-22 19:28:00,
2013-06-22 14:34:00,77.5,73.3,29.98,SSW,200,2.0,4.0,87,0.00,,,0.20,Wunderground v.1.15,2013-06-22 19:34:00,
2013-06-22 14:39:00,77.4,73.2,29.98,SE,146,2.0,5.0,87,0.00,,,0.20,Wunderground v.1.15,2013-06-22 19:39:00,
2013-06-22 14:46:00,77.4,73.2,29.97,South,183,3.0,3.0,87,0.00,,,0.20,Wunderground v.1.15,2013-06-22 19:46:00,
2013-06-22 14:52:00,77.6,73.4,29.97,SSW,198,2.0,4.0,87,0.00,,,0.20,Wunderground v.1.15,2013-06-22 19:52:00,
2013-06-22 14:58:00,77.8,73.3,29.96,SSW,196,2.0,4.0,86,0.00,,,0.20,Wunderground v.1.15,2013-06-22 19:58:00,
2013-06-22 15:04:00,77.9,73.4,29.95,South,185,3.0,4.0,86,0.00,,,0.20,Wunderground v.1.15,2013-06-22 20:04:00,
2013-06-22 15:10:00,77.9,73.0,29.95,South,184,3.0,3.0,85,0.00,,,0.20,Wunderground v.1.15,2013-06-22 20:10:00,
2013-06-22 15:16:00,77.5,72.3,29.95,SW,225,3.0,5.0,84,0.00,,,0.20,Wunderground v.1.15,2013-06-22 20:16:00,
2013-06-22 15:22:00,77.1,72.2,29.95,South,179,3.0,3.0,85,0.00,,,0.20,Wunderground v.1.15,2013-06-22 20:22:00,
2013-06-22 15:28:00,76.9,72.4,29.95,SSW,196,2.0,6.0,86,0.00,,,0.20,Wunderground v.1.15,2013-06-22 20:28:00,
2013-06-22 15:34:00,76.7,72.2,29.94,South,182,3.0,4.0,86,0.00,,,0.20,Wunderground v.1.15,2013-06-22 20:34:00,
2013-06-22 15:40:00,76.5,72.3,29.94,SW,216,3.0,3.0,87,0.00,,,0.20,Wunderground v.1.15,2013-06-22 20:40:00,
2013-06-22 15:46:00,76.6,72.4,29.94,SW,232,2.0,3.0,87,0.00,,,0.20,Wunderground v.1.15,2013-06-22 20:46:00,
2013-06-22 15:52:00,76.7,72.5,29.94,SSE,165,1.0,1.0,87,0.00,,,0.20,Wunderground v.1.15,2013-06-22 20:52:00,
2013-06-22 15:58:00,76.7,72.5,29.94,South,175,2.0,2.0,87,0.00,,,0.20,Wunderground v.1.15,2013-06-22 20:58:00,
2013-06-22 16:04:00,76.7,72.5,29.95,SW,219,2.0,2.0,87,0.00,,,0.20,Wunderground v.1.15,2013-06-22 21:04:00,
2013-06-22 16:10:00,76.7,72.5,29.94,SW,217,2.0,3.0,87,0.00,,,0.20,Wunderground v.1.15,2013-06-22 21:10:00,
2013-06-22 16:16:00,76.7,72.5,29.95,SW,215,2.0,3.0,87,0.00,,,0.20,Wunderground v.1.15,2013-06-22 21:16:00,
2013-06-22 16:22:00,76.6,72.4,29.95,SSW,200,3.0,3.0,87,0.00,,,0.20,Wunderground v.1.15,2013-06-22 21:22:00,
2013-06-22 16:28:00,76.5,72.3,29.95,SSW,193,3.0,5.0,87,0.00,,,0.20,Wunderground v.1.15,2013-06-22 21:28:00,
2013-06-22 16:34:00,76.4,72.2,29.94,SW,233,2.0,3.0,87,0.00,,,0.20,Wunderground v.1.15,2013-06-22 21:34:00,
2013-06-22 16:40:00,76.4,72.6,29.93,SSW,200,2.0,2.0,88,0.00,,,0.20,Wunderground v.1.15,2013-06-22 21:40:00,
2013-06-22 16:46:00,76.4,72.6,29.92,South,179,2.0,3.0,88,0.00,,,0.20,Wunderground v.1.15,2013-06-22 21:46:00,
2013-06-22 16:52:00,76.4,72.2,29.91,SSW,196,3.0,3.0,87,0.00,,,0.20,Wunderground v.1.15,2013-06-22 21:52:00,
2013-06-22 16:57:00,76.4,72.2,29.91,South,182,3.0,5.0,87,0.00,,,0.20,Wunderground v.1.15,2013-06-22 21:57:00,
2013-06-22 17:04:00,76.5,72.3,29.91,SSW,192,2.0,4.0,87,0.00,,,0.20,Wunderground v.1.15,2013-06-22 22:04:00,
2013-06-22 17:10:00,76.4,72.2,29.92,SSW,200,3.0,5.0,87,0.00,,,0.20,Wunderground v.1.15,2013-06-22 22:10:00,
2013-06-22 17:16:00,76.5,72.0,29.91,South,175,2.0,3.0,86,0.00,,,0.20,Wunderground v.1.15,2013-06-22 22:16:00,
2013-06-22 17:22:00,76.6,72.1,29.92,South,185,3.0,3.0,86,0.00,,,0.20,Wunderground v.1.15,2013-06-22 22:22:00,
2013-06-22 17:28:00,76.6,71.7,29.92,SSW,212,3.0,6.0,85,0.00,,,0.20,Wunderground v.1.15,2013-06-22 22:28:00,
2013-06-22 17:34:00,76.7,71.5,29.91,SSW,198,3.0,5.0,84,0.00,,,0.20,Wunderground v.1.15,2013-06-22 22:34:00,
2013-06-22 17:40:00,76.6,71.4,29.92,SW,218,3.0,5.0,84,0.00,,,0.20,Wunderground v.1.15,2013-06-22 22:40:00,
2013-06-22 17:46:00,76.6,71.4,29.92,SSW,209,3.0,6.0,84,0.00,,,0.20,Wunderground v.1.15,2013-06-22 22:46:00,
2013-06-22 17:52:00,76.5,71.3,29.92,SSW,197,3.0,3.0,84,0.00,,,0.20,Wunderground v.1.15,2013-06-22 22:52:00,
2013-06-22 17:58:00,76.5,71.3,29.92,SSW,198,4.0,8.0,84,0.00,,,0.20,Wunderground v.1.15,2013-06-22 22:58:00,
2013-06-22 18:04:00,76.3,71.1,29.92,SW,214,4.0,4.0,84,0.00,,,0.20,Wunderground v.1.15,2013-06-22 23:04:00,
2013-06-22 18:10:00,76.0,70.8,29.92,SSW,205,5.0,7.0,84,0.00,,,0.20,Wunderground v.1.15,2013-06-22 23:10:00,
2013-06-22 18:16:00,75.7,70.5,29.92,South,188,5.0,5.0,84,0.00,,,0.20,Wunderground v.1.15,2013-06-22 23:16:00,
2013-06-22 18:22:00,75.5,70.3,29.92,SSW,210,5.0,7.0,84,0.00,,,0.20,Wunderground v.1.15,2013-06-22 23:22:00,
2013-06-22 18:28:00,75.4,70.2,29.93,SSW,202,5.0,7.0,84,0.00,,,0.20,Wunderground v.1.15,2013-06-22 23:28:00,
2013-06-22 18:34:00,75.3,69.8,29.93,SSW,194,5.0,5.0,83,0.00,,,0.20,Wunderground v.1.15,2013-06-22 23:34:00,
2013-06-22 18:40:00,75.1,69.2,29.92,SSW,196,5.0,6.0,82,0.00,,,0.20,Wunderground v.1.15,2013-06-22 23:40:00,
2013-06-22 18:46:00,74.9,69.4,29.93,SSW,192,4.0,7.0,83,0.00,,,0.20,Wunderground v.1.15,2013-06-22 23:46:00,
2013-06-22 18:52:00,74.6,69.1,29.93,SSW,209,4.0,4.0,83,0.00,,,0.20,Wunderground v.1.15,2013-06-22 23:52:00,
2013-06-22 18:58:00,74.2,68.3,29.94,SW,234,4.0,5.0,82,0.00,,,0.20,Wunderground v.1.15,2013-06-22 23:58:00,
2013-06-22 19:04:00,73.8,68.0,29.94,South,191,4.0,8.0,82,0.00,,,0.20,Wunderground v.1.15,2013-06-23 00:04:00,
2013-06-22 19:10:00,73.5,67.7,29.95,SSW,205,4.0,5.0,82,0.00,,,0.20,Wunderground v.1.15,2013-06-23 00:10:00,
2013-06-22 19:16:00,73.3,67.8,29.94,SSW,208,4.0,8.0,83,0.00,,,0.20,Wunderground v.1.15,2013-06-23 00:16:00,
2013-06-22 19:22:00,73.3,67.8,29.94,SSW,202,4.0,5.0,83,0.00,,,0.20,Wunderground v.1.15,2013-06-23 00:22:00,
2013-06-22 19:28:00,73.1,67.6,29.94,SW,219,4.0,6.0,83,0.00,,,0.20,Wunderground v.1.15,2013-06-23 00:28:00,
2013-06-22 19:34:00,72.9,67.4,29.94,SW,233,4.0,4.0,83,0.00,,,0.20,Wunderground v.1.15,2013-06-23 00:34:00,
2013-06-22 19:40:00,72.7,67.6,29.94,SSW,213,3.0,3.0,84,0.00,,,0.20,Wunderground v.1.15,2013-06-23 00:40:00,
2013-06-22 19:46:00,72.6,67.5,29.94,SSW,205,2.0,3.0,84,0.00,,,0.20,Wunderground v.1.15,2013-06-23 00:46:00,
2013-06-22 19:52:00,72.3,67.2,29.94,SW,215,2.0,3.0,84,0.00,,,0.20,Wunderground v.1.15,2013-06-23 00:52:00,
2013-06-22 19:58:00,72.2,67.1,29.94,SSE,167,2.0,3.0,84,0.00,,,0.20,Wunderground v.1.15,2013-06-23 00:58:00,
2013-06-22 20:04:00,72.0,66.9,29.94,SW,220,2.0,2.0,84,0.00,,,0.20,Wunderground v.1.15,2013-06-23 01:04:00,
2013-06-22 20:10:00,71.8,66.7,29.94,SW,217,3.0,4.0,84,0.00,,,0.20,Wunderground v.1.15,2013-06-23 01:10:00,
2013-06-22 20:16:00,71.6,66.8,29.94,SSW,197,2.0,3.0,85,0.00,,,0.20,Wunderground v.1.15,2013-06-23 01:16:00,
2013-06-22 20:22:00,71.3,66.6,29.94,SSW,198,1.0,1.0,85,0.00,,,0.20,Wunderground v.1.15,2013-06-23 01:22:00,
2013-06-22 20:28:00,71.0,66.6,29.94,SSW,210,1.0,2.0,86,0.00,,,0.20,Wunderground v.1.15,2013-06-23 01:28:00,
2013-06-22 20:34:00,70.8,66.4,29.94,SSW,194,1.0,2.0,86,0.00,,,0.20,Wunderground v.1.15,2013-06-23 01:34:00,
2013-06-22 20:40:00,70.6,66.2,29.94,SSW,201,2.0,2.0,86,0.00,,,0.20,Wunderground v.1.15,2013-06-23 01:40:00,
2013-06-22 20:46:00,70.4,66.3,29.94,SW,218,1.0,1.0,87,0.00,,,0.20,Wunderground v.1.15,2013-06-23 01:46:00,
2013-06-22 20:52:00,70.3,66.2,29.94,SSW,213,1.0,1.0,87,0.00,,,0.20,Wunderground v.1.15,2013-06-23 01:52:00,
2013-06-22 20:58:00,70.1,66.0,29.94,SSW,213,1.0,1.0,87,0.00,,,0.20,Wunderground v.1.15,2013-06-23 01:58:00,
2013-06-22 21:03:00,69.9,66.2,29.95,SSW,213,1.0,1.0,88,0.00,,,0.20,Wunderground v.1.15,2013-06-23 02:03:00,
2013-06-22 21:10:00,69.6,65.9,29.95,SSW,213,0.0,1.0,88,0.00,,,0.20,Wunderground v.1.15,2013-06-23 02:10:00,
2013-06-22 21:16:00,69.4,66.0,29.95,SSW,213,1.0,1.0,89,0.00,,,0.20,Wunderground v.1.15,2013-06-23 02:16:00,
2013-06-22 21:22:00,69.2,65.8,29.95,SSW,213,0.0,0.0,89,0.00,,,0.20,Wunderground v.1.15,2013-06-23 02:22:00,
2013-06-22 21:27:00,69.1,66.0,29.95,SSW,213,0.0,0.0,90,0.00,,,0.20,Wunderground v.1.15,2013-06-23 02:27:00,
2013-06-22 21:34:00,69.0,65.9,29.95,SSW,213,0.0,2.0,90,0.00,,,0.20,Wunderground v.1.15,2013-06-23 02:34:00,
2013-06-22 21:39:00,68.9,65.8,29.95,SSW,207,0.0,3.0,90,0.00,,,0.20,Wunderground v.1.15,2013-06-23 02:39:00,
2013-06-22 21:46:00,68.8,65.7,29.95,SSW,207,0.0,2.0,90,0.00,,,0.20,Wunderground v.1.15,2013-06-23 02:46:00,
2013-06-22 21:51:00,68.7,66.0,29.96,SSW,205,1.0,2.0,91,0.00,,,0.20,Wunderground v.1.15,2013-06-23 02:51:00,
2013-06-22 21:58:00,68.8,65.7,29.96,South,171,1.0,2.0,90,0.00,,,0.20,Wunderground v.1.15,2013-06-23 02:58:00,
2013-06-22 22:04:00,68.7,65.6,29.97,South,171,1.0,1.0,90,0.00,,,0.20,Wunderground v.1.15,2013-06-23 03:04:00,
2013-06-22 22:10:00,68.5,65.4,29.97,South,171,0.0,0.0,90,0.00,,,0.20,Wunderground v.1.15,2013-06-23 03:10:00,
2013-06-22 22:16:00,68.3,65.3,29.97,South,171,0.0,0.0,90,0.00,,,0.20,Wunderground v.1.15,2013-06-23 03:16:00,
2013-06-22 22:22:00,68.1,65.1,29.97,South,171,0.0,0.0,90,0.00,,,0.20,Wunderground v.1.15,2013-06-23 03:22:00,
2013-06-22 22:28:00,67.7,65.0,29.98,South,171,0.0,0.0,91,0.00,,,0.20,Wunderground v.1.15,2013-06-23 03:28:00,
2013-06-22 22:34:00,67.5,64.8,29.98,South,171,0.0,0.0,91,0.00,,,0.20,Wunderground v.1.15,2013-06-23 03:34:00,
2013-06-22 22:40:00,67.2,64.5,29.98,South,171,0.0,0.0,91,0.00,,,0.20,Wunderground v.1.15,2013-06-23 03:40:00,
2013-06-22 22:46:00,67.1,64.7,29.98,South,171,0.0,1.0,92,0.00,,,0.20,Wunderground v.1.15,2013-06-23 03:46:00,
2013-06-22 22:51:00,66.9,64.5,29.98,South,171,0.0,2.0,92,0.00,,,0.20,Wunderground v.1.15,2013-06-23 03:51:00,
2013-06-22 22:58:00,66.8,64.4,29.98,South,171,0.0,2.0,92,0.00,,,0.20,Wunderground v.1.15,2013-06-23 03:58:00,
2013-06-22 23:01:00,66.7,64.3,29.98,South,171,0.0,0.0,92,0.00,,,0.20,Wunderground v.1.15,2013-06-23 04:01:00,
2013-06-22 23:08:00,66.6,64.2,29.98,South,171,0.0,0.0,92,0.00,,,0.20,Wunderground v.1.15,2013-06-23 04:08:00,
2013-06-22 23:14:00,66.4,64.0,29.98,South,171,0.0,0.0,92,0.00,,,0.20,Wunderground v.1.15,2013-06-23 04:14:00,
2013-06-22 23:19:00,66.3,63.9,29.98,South,171,0.0,2.0,92,0.00,,,0.20,Wunderground v.1.15,2013-06-23 04:19:00,
2013-06-22 23:26:00,66.1,63.7,29.97,South,171,0.0,1.0,92,0.00,,,0.20,Wunderground v.1.15,2013-06-23 04:26:00,
2013-06-22 23:32:00,66.0,63.9,29.97,South,171,0.0,0.0,93,0.00,,,0.20,Wunderground v.1.15,2013-06-23 04:32:00,
2013-06-22 23:38:00,65.9,63.8,29.98,South,171,0.0,0.0,93,0.00,,,0.20,Wunderground v.1.15,2013-06-23 04:38:00,
2013-06-22 23:44:00,65.8,63.7,29.98,South,171,0.0,0.0,93,0.00,,,0.20,Wunderground v.1.15,2013-06-23 04:44:00,
2013-06-22 23:50:00,65.7,63.6,29.98,South,171,0.0,0.0,93,0.00,,,0.20,Wunderground v.1.15,2013-06-23 04:50:00,
2013-06-22 23:56:00,65.6,63.5,29.98,South,171,0.0,0.0,93,0.00,,,0.20,Wunderground v.1.15,2013-06-23 04:56:00,